User: anonymous   Login
Location: Unspecified
(0.0000°N, 0.0000°E)
Time: 12:47:58
(UTC+00:00)
Language:

CZ-3B DEB - Orbit

View from above orbital plane
View from above orbital plane
View from above satellite
View from above satellite

Ground track
Ground track

The orbit data is extracted from the following two-line orbital elements,

1 40186U 11077K   21211.52831137  .00000010  00000-0  00000+0 0  9992
2 40186  25.2706 173.3160 7295554 220.8046 342.3590  1.88711382 66213
Epoch (UTC): 30 July 2021 12:40:46
Eccentricity: 0.7295554
inclination: 25.2706°
perigee height: 1102 km
apogee height: 41463 km
right ascension of ascending node: 173.3160°
argument of perigee: 220.8046°
revolutions per day: 1.88711382
mean anomaly at epoch: 342.3590°
orbit number at epoch: 6621

The dashed part of the orbit path shows where the satellite is in the earth's shadow,  

DLR